This demonstration page uses our WeatherBlox Daily Observations layout. Learn more.

Left ArrowRight Arrow

Hourly Observations for September 22, 2020

Temp ( °F °C ) Dew Point ( °F °C ) Humidity (%) Winds ( mph kmh ) Pressure ( in mb ) Visibility ( mi km ) Precip ( " mm )
12:52 am 00:52 Clear 64 17.8 58 14.4 81 81 SSE 9 15 30.12 1020 10 16 0.00 0.00
1:52 am 01:52 Clear 64 17.8 57 13.9 78 78 S 8 13 30.11 1020 10 16 0.00 0.00
2:52 am 02:52 Clear 61 16.1 57 13.9 87 87 SSE 8 13 30.12 1020 10 16 0.00 0.00
3:52 am 03:52 Clear 60 15.6 57 13.9 90 90 SE 10 17 30.12 1020 10 16 0.00 0.00
4:52 am 04:52 Clear 58 14.4 55 12.8 90 90 SSE 8 13 30.11 1020 10 16 0.00 0.00
5:52 am 05:52 Clear 57 13.9 54 12.2 90 90 SSE 6 9 30.12 1020 10 16 0.00 0.00
6:52 am 06:52 Clear 56 13.3 54 12.2 93 93 SSE 8 13 30.13 1020 10 16 0.00 0.00
7:52 am 07:52 Sunny 58 14.4 56 13.3 93 93 SSE 7 11 30.13 1020 10 16 0.00 0.00
8:52 am 08:52 Sunny 61 16.1 57 13.9 87 87 SSE 8 13 30.13 1020 10 16 0.00 0.00
9:52 am 09:52 Sunny 66 18.9 57 13.9 73 73 SSE 9 15 30.13 1020 10 16 0.00 0.00
10:52 am 10:52 Sunny 71 21.7 58 14.4 63 63 S 9 15 30.11 1020 10 16 0.00 0.00
11:52 am 11:52 Sunny 76 24.4 58 14.4 54 54 S 9 15 30.10 1019 10 16 0.00 0.00
12:52 pm 12:52 Mostly Sunny 79 26.1 58 14.4 49 49 S 10 17 30.08 1019 10 16 0.00 0.00
1:52 pm 13:52 Mostly Sunny 81 27.2 56 13.3 42 42 S 15 24 30.05 1018 10 16 0.00 0.00
2:52 pm 14:52 Mostly Sunny 82 27.8 56 13.3 41 41 S 10 17 30.02 1017 10 16 0.00 0.00
3:52 pm 15:52 Mostly Sunny 83 28.3 55 12.8 38 38 S 13 20 30.01 1016 10 16 0.00 0.00
4:52 pm 16:52 Partly Cloudy 83 28.3 55 12.8 38 38 S 13 20 30.00 1016 10 16 0.00 0.00
5:52 pm 17:52 Partly Cloudy 82 27.8 54 12.2 38 38 SSE 14 22 29.99 1016 10 16 0.00 0.00
6:52 pm 18:52 Partly Cloudy 78 25.6 55 12.8 45 45 SSE 10 17 29.99 1016 10 16 0.00 0.00
7:52 pm 19:52 Partly Cloudy 71 21.7 57 13.9 61 61 SSE 9 15 30.00 1016 10 16 0.00 0.00
8:52 pm 20:52 Mostly Clear 70 21.1 57 13.9 64 64 SSE 9 15 30.01 1016 10 16 0.00 0.00
9:52 pm 21:52 Mostly Clear 71 21.7 58 14.4 63 63 S 12 19 30.00 1016 10 16 0.00 0.00
10:52 pm 22:52 Clear 65 18.3 58 14.4 78 78 SSE 8 13 30.02 1017 10 16 0.00 0.00
11:52 pm 23:52 Clear 64 17.8 58 14.4 81 81 SSE 9 15 30.02 1017 10 16 0.00 0.00

Powered by AerisWeather